Location: *
(46.3500°N, 10.9000°E)
Time: 23:40:43
(UTC+00:00)

Vanguard 2 - Pass Details

Date: 21 April 2021
Orbit: 552 x 2938 km, 32.9° (Epoch: 12 May)

Event Time Altitude Azimuth Distance (km) Brightness Sun altitude
Rises 14:46:36 0° 263° (W) 6,116 13.1 34.0°
Reaches altitude 10° 14:51:36 10° 256° (WSW) 4,744 13.0 33.2°
Maximum altitude 15:02:06 34° 199° (SSW) 2,404 10.8 31.4°
Drops below altitude 10° 15:08:58 10° 138° (SE) 3,064 10.4 30.3°
Sets 15:11:30 0° 128° (SE) 3,753 10.7 29.9°
